ROMMA est une association bénévole à but non lucratif. Votre soutien est indispensable : ADHERER à ROMMA ou FAIRE un DON

Lans-en-Vercors - (38, Isère)

Vercors (990 m)   Longitude: 5° 33' 59'' E   Latitude: 45° 6' 3'' N Station partenaire n°80
 

Détail journalier du     <<     >>

Température Humidité Vent Dir Rafale Dir. rafale Ensol.
Heure (°C) (%) (km/h) (km/h) (min)
01:00 0.66515NNE40NNE0
02:00 0.36613NNE35NNE0
03:00 0.26924NNE47NNE0
04:00 0.16919NNE47N0
05:00 -0.17221NNE39NE0
06:00 -0.37219NNE40NNE0
07:00 -0.67523NNE48NNE0
08:00 -0.57425NNE53NNE0
09:00 0.07420NNE50NE0
10:00 2.66512NNE37NE0
11:00 4.8579NNE34NNE60
12:00 6.84915NNE35NNE60
13:00 6.64716NNE39NNE60
14:00 7.05014N35NNO0
15:00 7.34916NNE37NNE60
16:00 8.44519NNE35NNE60
17:00 8.34019NNE39NNE60
18:00 7.34014NNE35N60
19:00 3.85011N31NE30
20:00 1.6583N23NNE0
21:00 -1.26806N0
22:00 -1.47106OSO0
23:00 -2.17508OSO0
minuit -3.88103OSO0

Graphique du 26-03-2019

 

Serveur OMMA